| time (UTC) | temp F | wind direction | speed MPH | gust MPH | rain 1hr in | rain 24hr in | rain mn in | humidity % | barometer mb |
| 20260507051952 | 59 | 54 | 2.0 | 6.0 | 0.00 | 0.00 | 0.00 | 1 | 1015.4 |
| 20260507051452 | 59 | 64 | 2.0 | 4.0 | 0.00 | 0.00 | 0.00 | 1 | 1015.6 |
| 20260507050954 | 59 | 77 | 2.0 | 4.0 | 0.00 | 0.00 | 0.00 | 1 | 1015.5 |
| 20260507050950 | 59 | 324 | 2.0 | 5.0 | 0.00 | 0.00 | 0.00 | 1 | 1015.6 |
| 20260507045949 | 59 | 47 | 1.0 | 5.0 | 0.00 | 0.00 | 0.00 | 1 | 1015.6 |
| 20260507045451 | 59 | 69 | 1.0 | 5.0 | 0.00 | 0.00 | 0.00 | 1 | 1015.9 |
| 20260507044950 | 60 | 45 | 2.0 | 4.0 | 0.00 | 0.00 | 0.00 | 1 | 1015.8 |
| 20260507044450 | 60 | 44 | 1.0 | 4.0 | 0.00 | 0.00 | 0.00 | 1 | 1015.7 |
| 20260507043949 | 60 | 60 | 1.0 | 4.0 | 0.00 | 0.00 | 0.00 | 1 | 1015.6 |
| 20260507043453 | 60 | 44 | 1.0 | 3.0 | 0.00 | 0.00 | 0.00 | 1 | 1015.4 |
| 20260507043449 | 60 | 73 | 1.0 | 4.0 | 0.00 | 0.00 | 0.00 | 1 | 1015.4 |
| 20260507042555 | 60 | 53 | 1.0 | 3.0 | 0.00 | 0.00 | 0.00 | 1 | 1015.4 |
| 20260507042452 | 60 | 351 | 1.0 | 5.0 | 0.00 | 0.00 | 0.00 | 1 | 1015.5 |
| 20260507042448 | 60 | 59 | 1.0 | 5.0 | 0.00 | 0.00 | 0.00 | 1 | 1015.5 |
| 20260507040947 | 60 | 26 | 1.0 | 3.0 | 0.00 | 0.00 | 0.00 | 1 | 1015.6 |
| 20260507040445 | 60 | 68 | 1.0 | 3.0 | 0.00 | 0.00 | 0.00 | 1 | 1015.6 |
| 20260507035945 | 60 | 52 | 1.0 | 3.0 | 0.00 | 0.00 | 0.00 | 1 | 1015.7 |
| 20260507035446 | 60 | 39 | 1.0 | 3.0 | 0.00 | 0.00 | 0.00 | 1 | 1015.8 |
| 20260507034943 | 60 | 355 | 1.0 | 3.0 | 0.00 | 0.00 | 0.00 | 1 | 1015.7 |
| 20260507034443 | 60 | 30 | 1.0 | 4.0 | 0.00 | 0.00 | 0.00 | 1 | 1015.6 |
| 20260507033943 | 60 | 350 | 1.0 | 4.0 | 0.00 | 0.00 | 0.00 | 1 | 1015.8 |
| 20260507033445 | 61 | 12 | 1.0 | 2.0 | 0.00 | 0.00 | 0.00 | 1 | 1015.8 |
| 20260507033441 | 61 | 326 | 1.0 | 3.0 | 0.00 | 0.00 | 0.00 | 1 | 1015.9 |
| 20260507032442 | 61 | 309 | 1.0 | 3.0 | 0.00 | 0.00 | 0.00 | 1 | 1015.8 |
| 20260507031941 | 61 | 313 | 1.0 | 3.0 | 0.00 | 0.00 | 0.00 | 1 | 1015.9 |
| 20260507031439 | 61 | 246 | 1.0 | 3.0 | 0.00 | 0.00 | 0.00 | 1 | 1015.8 |
| 20260507030939 | 61 | 25 | 1.0 | 3.0 | 0.00 | 0.00 | 0.00 | 1 | 1015.7 |
| 20260507030439 | 61 | 53 | 1.0 | 2.0 | 0.00 | 0.00 | 0.00 | 1 | 1015.5 |
| 20260507025938 | 61 | 19 | 0.0 | 2.0 | 0.00 | 0.00 | 0.00 | 1 | 1015.5 |
| 20260507025437 | 61 | 50 | 1.0 | 2.0 | 0.00 | 0.00 | 0.00 | 1 | 1015.5 |
| 20260507024937 | 61 | 314 | 1.0 | 2.0 | 0.00 | 0.00 | 0.00 | 1 | 1015.6 |
| 20260507024436 | 61 | 311 | 1.0 | 3.0 | 0.00 | 0.00 | 0.00 | 1 | 1015.4 |
| 20260507023936 | 61 | 306 | 1.0 | 3.0 | 0.00 | 0.00 | 0.00 | 1 | 1015.4 |
| 20260507023436 | 61 | 329 | 1.0 | 3.0 | 0.00 | 0.00 | 0.00 | 1 | 1015.2 |
| 20260507022935 | 61 | 28 | 1.0 | 3.0 | 0.00 | 0.00 | 0.00 | 1 | 1015.1 |
| 20260507022435 | 61 | 28 | 1.0 | 2.0 | 0.00 | 0.00 | 0.00 | 1 | 1015.0 |
| 20260507021935 | 61 | 30 | 1.0 | 3.0 | 0.00 | 0.00 | 0.00 | 1 | 1014.9 |
| 20260507021434 | 61 | 34 | 1.0 | 3.0 | 0.00 | 0.00 | 0.00 | 1 | 1014.8 |
| 20260507020939 | 61 | 321 | 1.0 | 3.0 | 0.00 | 0.00 | 0.00 | 1 | 1014.5 |
| 20260507020935 | 61 | 69 | 1.0 | 3.0 | 0.00 | 0.00 | 0.00 | 1 | 1014.5 |
| 20260507020541 | 61 | 310 | 1.0 | 2.0 | 0.00 | 0.00 | 0.00 | 1 | 1014.4 |
| 20260507015437 | 61 | 333 | 1.0 | 2.0 | 0.00 | 0.00 | 0.00 | 1 | 1014.3 |
| 20260507015432 | 61 | 15 | 1.0 | 3.0 | 0.00 | 0.00 | 0.00 | 1 | 1014.2 |
| 20260507015036 | 61 | 30 | 0.0 | 2.0 | 0.00 | 0.00 | 0.00 | 1 | 1014.4 |
| 20260507013931 | 61 | 302 | 1.0 | 3.0 | 0.00 | 0.00 | 0.00 | 1 | 1014.0 |
| 20260507013435 | 61 | 332 | 0.0 | 3.0 | 0.00 | 0.00 | 0.00 | 1 | 1014.0 |
| 20260507013431 | 61 | 355 | 1.0 | 3.0 | 0.00 | 0.00 | 0.00 | 1 | 1013.5 |
| 20260507012429 | 61 | 325 | 1.0 | 3.0 | 0.00 | 0.00 | 0.00 | 1 | 1013.6 |
| 20260507011929 | 61 | 319 | 1.0 | 3.0 | 0.00 | 0.00 | 0.00 | 1 | 1013.5 |
| 20260507011433 | 61 | 324 | 1.0 | 3.0 | 0.00 | 0.00 | 0.00 | 1 | 1013.1 |
| 20260507011429 | 61 | 325 | 1.0 | 3.0 | 0.00 | 0.00 | 0.00 | 1 | 1013.3 |
| 20260507010427 | 61 | 9 | 1.0 | 3.0 | 0.00 | 0.00 | 0.00 | 1 | 1013.2 |
| 20260507005927 | 61 | 355 | 1.0 | 3.0 | 0.00 | 0.00 | 0.00 | 1 | 1013.0 |
| 20260507005427 | 61 | 12 | 1.0 | 3.0 | 0.00 | 0.00 | 0.00 | 1 | 1013.1 |
| 20260507004927 | 61 | 323 | 2.0 | 4.0 | 0.00 | 0.00 | 0.00 | 1 | 1013.1 |
| 20260507004427 | 61 | 344 | 1.0 | 4.0 | 0.00 | 0.00 | 0.00 | 1 | 1013.1 |
| 20260507003931 | 61 | 322 | 2.0 | 4.0 | 0.00 | 0.00 | 0.00 | 1 | 1013.0 |
| 20260507003927 | 61 | 319 | 1.0 | 4.0 | 0.00 | 0.00 | 0.00 | 1 | 1013.0 |
| 20260507002927 | 61 | 350 | 2.0 | 4.0 | 0.00 | 0.00 | 0.00 | 1 | 1012.8 |
| 20260507002427 | 61 | 309 | 1.0 | 3.0 | 0.00 | 0.00 | 0.00 | 1 | 1012.6 |
| 20260507001927 | 61 | 333 | 1.0 | 4.0 | 0.00 | 0.00 | 0.00 | 1 | 1012.8 |
| 20260507001432 | 61 | 5 | 1.0 | 7.0 | 0.00 | 0.00 | 0.00 | 1 | 1012.6 |
| 20260507001427 | 61 | 355 | 1.0 | 4.0 | 0.00 | 0.00 | 0.00 | 1 | 1012.7 |
| 20260507000424 | 61 | 338 | 1.0 | 7.0 | 0.00 | 0.00 | 0.00 | 1 | 1012.8 |
| 20260506235923 | 61 | 41 | 1.0 | 4.0 | 0.00 | 0.00 | 0.00 | 1 | 1012.9 |
| 20260506235423 | 61 | 332 | 2.0 | 4.0 | 0.00 | 0.00 | 0.00 | 1 | 1012.6 |
| 20260506234923 | 61 | 328 | 2.0 | 4.0 | 0.00 | 0.00 | 0.00 | 1 | 1012.5 |
| 20260506234423 | 61 | 321 | 1.0 | 3.0 | 0.00 | 0.00 | 0.00 | 1 | 1012.7 |
| 20260506233921 | 61 | 345 | 1.0 | 3.0 | 0.00 | 0.00 | 0.00 | 1 | 1012.8 |
| 20260506233421 | 61 | 324 | 1.0 | 2.0 | 0.00 | 0.00 | 0.00 | 1 | 1012.9 |
| 20260506232921 | 61 | 307 | 1.0 | 2.0 | 0.00 | 0.00 | 0.00 | 1 | 1012.7 |
| 20260506232421 | 61 | 333 | 1.0 | 4.0 | 0.00 | 0.00 | 0.00 | 1 | 1012.8 |
| 20260506231924 | 61 | 333 | 1.0 | 2.0 | 0.00 | 0.00 | 0.00 | 1 | 1012.7 |
| 20260506231920 | 61 | 0 | 1.0 | 4.0 | 0.00 | 0.00 | 0.00 | 1 | 1012.7 |
| 20260506230919 | 61 | 333 | 1.0 | 2.0 | 0.00 | 0.00 | 0.00 | 1 | 1012.5 |
| 20260506230419 | 61 | 17 | 0.0 | 2.0 | 0.00 | 0.00 | 0.00 | 1 | 1012.3 |
| 20260506225921 | 61 | 32 | 1.0 | 3.0 | 0.00 | 0.00 | 0.00 | 1 | 1012.3 |
| 20260506225917 | 61 | 342 | 1.0 | 3.0 | 0.00 | 0.00 | 0.00 | 1 | 1012.2 |
| 20260506224917 | 60 | 333 | 1.0 | 2.0 | 0.00 | 0.00 | 0.00 | 1 | 1012.3 |
| 20260506224415 | 60 | 332 | 1.0 | 2.0 | 0.00 | 0.00 | 0.00 | 1 | 1012.6 |
| 20260506223912 | 60 | 19 | 1.0 | 2.0 | 0.00 | 0.00 | 0.00 | 1 | 1012.6 |
| 20260506223412 | 60 | 315 | 1.0 | 5.0 | 0.00 | 0.00 | 0.00 | 1 | 1012.6 |
| 20260506222913 | 60 | 319 | 1.0 | 5.0 | 0.00 | 0.00 | 0.00 | 1 | 1012.4 |
| 20260506222415 | 60 | 315 | 1.0 | 4.0 | 0.00 | 0.00 | 0.00 | 1 | 1012.5 |
| 20260506222410 | 60 | 288 | 1.0 | 4.0 | 0.00 | 0.00 | 0.00 | 1 | 1012.5 |
| 20260506221409 | 60 | 5 | 1.0 | 3.0 | 0.00 | 0.00 | 0.00 | 1 | 1012.5 |
| 20260506220908 | 60 | 313 | 1.0 | 3.0 | 0.00 | 0.00 | 0.00 | 1 | 1012.4 |
| 20260506220409 | 60 | 316 | 1.0 | 3.0 | 0.00 | 0.00 | 0.00 | 1 | 1012.5 |
| 20260506215909 | 60 | 321 | 1.0 | 3.0 | 0.00 | 0.00 | 0.00 | 1 | 1012.5 |
| 20260506215408 | 60 | 0 | 1.0 | 3.0 | 0.00 | 0.00 | 0.00 | 1 | 1012.6 |
| 20260506214910 | 60 | 347 | 1.0 | 3.0 | 0.00 | 0.00 | 0.00 | 1 | 1012.7 |
| 20260506214906 | 60 | 0 | 2.0 | 4.0 | 0.00 | 0.00 | 0.00 | 1 | 1012.6 |
| 20260506214509 | 60 | 336 | 1.0 | 4.0 | 0.00 | 0.00 | 0.00 | 1 | 1012.6 |
| 20260506214009 | 60 | 351 | 2.0 | 4.0 | 0.00 | 0.00 | 0.00 | 1 | 1012.7 |
| 20260506212905 | 60 | 325 | 1.0 | 4.0 | 0.00 | 0.00 | 0.00 | 1 | 1012.5 |
| 20260506212405 | 60 | 339 | 1.0 | 4.0 | 0.00 | 0.00 | 0.00 | 1 | 1012.6 |
| 20260506211906 | 59 | 300 | 1.0 | 3.0 | 0.00 | 0.00 | 0.00 | 1 | 1012.6 |
| 20260506211406 | 59 | 324 | 2.0 | 3.0 | 0.00 | 0.00 | 0.00 | 1 | 1012.8 |
| 20260506210906 | 59 | 324 | 2.0 | 3.0 | 0.00 | 0.00 | 0.00 | 1 | 1012.7 |
| 20260506210405 | 60 | 312 | 2.0 | 4.0 | 0.00 | 0.00 | 0.00 | 1 | 1012.7 |
| 20260506205904 | 60 | 265 | 2.0 | 5.0 | 0.00 | 0.00 | 0.00 | 1 | 1012.8 |
| 20260506205404 | 60 | 331 | 2.0 | 5.0 | 0.00 | 0.00 | 0.00 | 1 | 1012.9 |
| 20260506204908 | 60 | 355 | 2.0 | 3.0 | 0.00 | 0.00 | 0.00 | 1 | 1012.7 |
| 20260506204904 | 60 | 315 | 2.0 | 3.0 | 0.00 | 0.00 | 0.00 | 1 | 1012.8 |
| 20260506203905 | 60 | 338 | 2.0 | 4.0 | 0.00 | 0.00 | 0.00 | 1 | 1012.9 |
| 20260506203405 | 60 | 329 | 2.0 | 4.0 | 0.00 | 0.00 | 0.00 | 1 | 1012.9 |
| 20260506202907 | 60 | 331 | 2.0 | 4.0 | 0.00 | 0.00 | 0.00 | 1 | 1012.9 |
| 20260506202903 | 60 | 337 | 2.0 | 4.0 | 0.00 | 0.00 | 0.00 | 1 | 1012.9 |
| 20260506201902 | 60 | 321 | 1.0 | 3.0 | 0.00 | 0.00 | 0.00 | 1 | 1013.0 |
| 20260506201402 | 60 | 315 | 1.0 | 3.0 | 0.00 | 0.00 | 0.00 | 1 | 1013.1 |
| 20260506200903 | 60 | 317 | 2.0 | 4.0 | 0.00 | 0.00 | 0.00 | 1 | 1012.9 |
| 20260506200403 | 60 | 355 | 2.0 | 4.0 | 0.00 | 0.00 | 0.00 | 1 | 1012.9 |
| 20260506195902 | 60 | 329 | 2.0 | 3.0 | 0.00 | 0.00 | 0.00 | 1 | 1013.0 |
| 20260506195402 | 60 | 324 | 2.0 | 4.0 | 0.00 | 0.00 | 0.00 | 1 | 1012.9 |
| 20260506194900 | 60 | 334 | 2.0 | 4.0 | 0.00 | 0.00 | 0.00 | 1 | 1012.8 |
| 20260506194400 | 59 | 325 | 2.0 | 7.0 | 0.00 | 0.00 | 0.00 | 1 | 1012.8 |
| 20260506193901 | 59 | 12 | 2.0 | 7.0 | 0.00 | 0.00 | 0.00 | 1 | 1013.0 |
| 20260506193401 | 59 | 332 | 2.0 | 4.0 | 0.00 | 0.00 | 0.00 | 1 | 1013.0 |
| 20260506192900 | 59 | 323 | 2.0 | 4.0 | 0.00 | 0.00 | 0.00 | 1 | 1013.3 |
| 20260506192401 | 58 | 5 | 2.0 | 5.0 | 0.00 | 0.00 | 0.00 | 1 | 1013.3 |
| 20260506191900 | 58 | 323 | 2.0 | 5.0 | 0.00 | 0.00 | 0.00 | 1 | 1013.4 |
| 20260506191400 | 59 | 332 | 2.0 | 4.0 | 0.00 | 0.00 | 0.00 | 1 | 1012.8 |
| 20260506190901 | 59 | 331 | 2.0 | 4.0 | 0.00 | 0.00 | 0.00 | 1 | 1013.4 |
| 20260506190401 | 59 | 309 | 2.0 | 4.0 | 0.00 | 0.00 | 0.00 | 1 | 1013.3 |
| 20260506185900 | 59 | 325 | 2.0 | 4.0 | 0.00 | 0.00 | 0.00 | 1 | 1013.2 |
| 20260506185400 | 59 | 311 | 2.0 | 3.0 | 0.00 | 0.00 | 0.00 | 1 | 1013.2 |
| 20260506184906 | 59 | 355 | 2.0 | 4.0 | 0.00 | 0.00 | 0.00 | 1 | 1013.3 |
| 20260506184901 | 59 | 305 | 2.0 | 4.0 | 0.00 | 0.00 | 0.00 | 1 | 1013.0 |
| 20260506183903 | 59 | 335 | 2.0 | 7.0 | 0.00 | 0.00 | 0.00 | 1 | 1013.6 |
| 20260506183859 | 59 | 307 | 2.0 | 7.0 | 0.00 | 0.00 | 0.00 | 1 | 1013.3 |
| 20260506182858 | 59 | 294 | 2.0 | 4.0 | 0.00 | 0.00 | 0.00 | 1 | 1013.3 |
| 20260506182357 | 59 | 277 | 2.0 | 4.0 | 0.00 | 0.00 | 0.00 | 1 | 1013.1 |
| 20260506181857 | 59 | 316 | 2.0 | 4.0 | 0.00 | 0.00 | 0.00 | 1 | 1013.2 |
| 20260506181356 | 59 | 326 | 2.0 | 5.0 | 0.00 | 0.00 | 0.00 | 1 | 1013.4 |
| 20260506180859 | 59 | 325 | 2.0 | 5.0 | 0.00 | 0.00 | 0.00 | 1 | 1013.0 |
| 20260506180855 | 59 | 302 | 2.0 | 5.0 | 0.00 | 0.00 | 0.00 | 1 | 1013.3 |
| 20260506180459 | 59 | 339 | 2.0 | 3.0 | 0.00 | 0.00 | 0.00 | 1 | 1013.3 |
| 20260506175959 | 59 | 339 | 1.0 | 3.0 | 0.00 | 0.00 | 0.00 | 1 | 1013.2 |
| 20260506174856 | 60 | 9 | 1.0 | 3.0 | 0.00 | 0.00 | 0.00 | 1 | 1013.2 |
| 20260506174852 | 59 | 321 | 2.0 | 3.0 | 0.00 | 0.00 | 0.00 | 1 | 1013.2 |
| 20260506173852 | 60 | 329 | 1.0 | 3.0 | 0.00 | 0.00 | 0.00 | 1 | 1013.5 |
| 20260506173357 | 60 | 323 | 1.0 | 3.0 | 0.00 | 0.00 | 0.00 | 1 | 1012.8 |
| 20260506173352 | 60 | 332 | 1.0 | 3.0 | 0.00 | 0.00 | 0.00 | 1 | 1013.4 |
| 20260506172351 | 60 | 323 | 1.0 | 5.0 | 0.00 | 0.00 | 0.00 | 1 | 1013.0 |
| 20260506171852 | 60 | 348 | 2.0 | 5.0 | 0.00 | 0.00 | 0.00 | 1 | 1012.4 |
| 20260506171352 | 60 | 346 | 2.0 | 5.0 | 0.00 | 0.00 | 0.00 | 1 | 1012.5 |
| 20260506170852 | 60 | 38 | 2.0 | 5.0 | 0.00 | 0.00 | 0.00 | 1 | 1012.1 |
| 20260506170352 | 60 | 49 | 2.0 | 5.0 | 0.00 | 0.00 | 0.00 | 1 | 1011.5 |
| 20260506165850 | 60 | 44 | 2.0 | 7.0 | 0.00 | 0.00 | 0.00 | 1 | 1011.1 |
| 20260506165350 | 60 | 33 | 2.0 | 7.0 | 0.00 | 0.00 | 0.00 | 1 | 1011.2 |
| 20260506164853 | 60 | 62 | 3.0 | 7.0 | 0.00 | 0.00 | 0.00 | 1 | 1012.6 |
| 20260506164849 | 60 | 84 | 3.0 | 7.0 | 0.00 | 0.00 | 0.00 | 1 | 1011.3 |
| 20260506163848 | 59 | 50 | 2.0 | 7.0 | 0.00 | 0.00 | 0.00 | 1 | 1011.8 |
| 20260506163348 | 59 | 67 | 3.0 | 7.0 | 0.00 | 0.00 | 0.00 | 1 | 1011.5 |
| 20260506162847 | 59 | 90 | 2.0 | 7.0 | 0.00 | 0.00 | 0.00 | 1 | 1011.6 |
| 20260506162346 | 58 | 72 | 1.0 | 4.0 | 0.00 | 0.00 | 0.00 | 1 | 1012.1 |
| 20260506161846 | 57 | 186 | 1.0 | 3.0 | 0.00 | 0.00 | 0.00 | 1 | 1012.4 |
| 20260506161345 | 57 | 72 | 1.0 | 3.0 | 0.00 | 0.00 | 0.00 | 1 | 1012.5 |
| 20260506160844 | 57 | 107 | 1.0 | 3.0 | 0.00 | 0.00 | 0.00 | 1 | 1013.9 |
| 20260506160342 | 57 | 355 | 1.0 | 4.0 | 0.00 | 0.00 | 0.00 | 1 | 1012.4 |
| 20260506155844 | 57 | 329 | 1.0 | 3.0 | 0.00 | 0.00 | 0.00 | 1 | 1013.2 |
| 20260506155840 | 57 | 80 | 1.0 | 4.0 | 0.00 | 0.00 | 0.00 | 1 | 1012.9 |
| 20260506154840 | 56 | 331 | 2.0 | 3.0 | 0.00 | 0.00 | 0.00 | 1 | 1013.5 |
| 20260506154339 | 56 | 64 | 1.0 | 3.0 | 0.00 | 0.00 | 0.00 | 1 | 1013.9 |
| 20260506153840 | 56 | 347 | 1.0 | 4.0 | 0.00 | 0.00 | 0.00 | 1 | 1014.1 |
| 20260506153340 | 56 | 34 | 2.0 | 8.0 | 0.00 | 0.00 | 0.00 | 1 | 1014.2 |
| 20260506152840 | 56 | 336 | 2.0 | 8.0 | 0.00 | 0.00 | 0.00 | 1 | 1013.4 |
| 20260506152340 | 57 | 333 | 3.0 | 7.0 | 0.00 | 0.00 | 0.00 | 1 | 1013.7 |
| 20260506151840 | 57 | 334 | 2.0 | 6.0 | 0.00 | 0.00 | 0.00 | 1 | 1013.5 |
| 20260506151341 | 57 | 325 | 2.0 | 6.0 | 0.00 | 0.00 | 0.00 | 1 | 1014.2 |
| 20260506150840 | 57 | 337 | 2.0 | 6.0 | 0.00 | 0.00 | 0.00 | 1 | 1013.9 |
| 20260506150339 | 57 | 329 | 2.0 | 5.0 | 0.00 | 0.00 | 0.00 | 1 | 1013.4 |
| 20260506145844 | 58 | 332 | 2.0 | 8.0 | 0.00 | 0.00 | 0.00 | 1 | 1013.6 |
| 20260506145840 | 58 | 322 | 2.0 | 8.0 | 0.00 | 0.00 | 0.00 | 1 | 1013.4 |
| 20260506144839 | 58 | 329 | 2.0 | 4.0 | 0.00 | 0.00 | 0.00 | 1 | 1013.3 |
| 20260506144337 | 58 | 338 | 2.0 | 4.0 | 0.00 | 0.00 | 0.00 | 1 | 1013.3 |
| 20260506143838 | 58 | 328 | 2.0 | 4.0 | 0.00 | 0.00 | 0.00 | 1 | 1013.3 |
| 20260506143341 | 58 | 329 | 2.0 | 5.0 | 0.00 | 0.00 | 0.00 | 1 | 1013.3 |
| 20260506143337 | 59 | 347 | 2.0 | 5.0 | 0.00 | 0.00 | 0.00 | 1 | 1012.9 |
| 20260506142339 | 59 | 298 | 2.0 | 4.0 | 0.00 | 0.00 | 0.00 | 1 | 1013.0 |
| 20260506142335 | 59 | 310 | 2.0 | 4.0 | 0.00 | 0.00 | 0.00 | 1 | 1013.0 |
| 20260506141334 | 59 | 338 | 2.0 | 4.0 | 0.00 | 0.00 | 0.00 | 1 | 1013.0 |
| 20260506140838 | 59 | 346 | 2.0 | 4.0 | 0.00 | 0.00 | 0.00 | 1 | 1012.4 |
| 20260506140834 | 59 | 328 | 1.0 | 4.0 | 0.00 | 0.00 | 0.00 | 1 | 1012.9 |
| 20260506135834 | 59 | 323 | 2.0 | 5.0 | 0.00 | 0.00 | 0.00 | 1 | 1012.0 |
| 20260506135830 | 59 | 325 | 2.0 | 5.0 | 0.00 | 0.00 | 0.00 | 1 | 1011.9 |
| 20260506134830 | 60 | 321 | 1.0 | 5.0 | 0.00 | 0.00 | 0.00 | 1 | 1011.5 |
| 20260506134328 | 60 | 339 | 1.0 | 4.0 | 0.00 | 0.00 | 0.00 | 1 | 1011.7 |
| 20260506133832 | 60 | 322 | 1.0 | 4.0 | 0.00 | 0.00 | 0.00 | 1 | 1011.6 |
| 20260506133828 | 60 | 322 | 2.0 | 4.0 | 0.00 | 0.00 | 0.00 | 1 | 1011.5 |
| 20260506133431 | 60 | 324 | 2.0 | 4.0 | 0.00 | 0.00 | 0.00 | 1 | 1011.5 |
| 20260506132326 | 60 | 332 | 2.0 | 4.0 | 0.00 | 0.00 | 0.00 | 1 | 1011.6 |
| 20260506131826 | 60 | 335 | 2.0 | 4.0 | 0.00 | 0.00 | 0.00 | 1 | 1011.5 |
| 20260506131326 | 60 | 328 | 2.0 | 5.0 | 0.00 | 0.00 | 0.00 | 1 | 1011.5 |
| 20260506130823 | 61 | 346 | 2.0 | 5.0 | 0.00 | 0.00 | 0.00 | 1 | 1011.3 |
| 20260506130323 | 61 | 322 | 2.0 | 3.0 | 0.00 | 0.00 | 0.00 | 1 | 1011.2 |
| 20260506125828 | 62 | 314 | 1.0 | 4.0 | 0.00 | 0.00 | 0.00 | 1 | 1010.9 |
| 20260506125823 | 62 | 313 | 2.0 | 4.0 | 0.00 | 0.00 | 0.00 | 1 | 1011.0 |
| 20260506124824 | 62 | 317 | 1.0 | 4.0 | 0.00 | 0.00 | 0.00 | 1 | 1010.9 |
| 20260506124325 | 63 | 321 | 1.0 | 4.0 | 0.00 | 0.00 | 0.00 | 1 | 1010.9 |
| 20260506123825 | 63 | 12 | 1.0 | 4.0 | 0.00 | 0.00 | 0.00 | 1 | 1010.7 |
| 20260506123321 | 63 | 320 | 1.0 | 3.0 | 0.00 | 0.00 | 0.00 | 1 | 1010.8 |
| 20260506122822 | 63 | 317 | 1.0 | 4.0 | 0.00 | 0.00 | 0.00 | 1 | 1010.5 |
| 20260506122321 | 63 | 312 | 1.0 | 4.0 | 0.00 | 0.00 | 0.00 | 1 | 1010.6 |
| 20260506121820 | 63 | 43 | 1.0 | 4.0 | 0.00 | 0.00 | 0.00 | 1 | 1010.3 |
| 20260506121325 | 64 | 320 | 1.0 | 3.0 | 0.00 | 0.00 | 0.00 | 1 | 1010.4 |
| 20260506121321 | 64 | 21 | 1.0 | 4.0 | 0.00 | 0.00 | 0.00 | 1 | 1010.4 |
| 20260506120319 | 64 | 23 | 2.0 | 4.0 | 0.00 | 0.00 | 0.00 | 1 | 1010.2 |
| 20260506115819 | 64 | 296 | 1.0 | 4.0 | 0.00 | 0.00 | 0.00 | 1 | 1010.2 |
| 20260506115318 | 64 | 321 | 1.0 | 3.0 | 0.00 | 0.00 | 0.00 | 1 | 1010.0 |
| 20260506114818 | 64 | 351 | 1.0 | 2.0 | 0.00 | 0.00 | 0.00 | 1 | 1010.0 |
| 20260506114318 | 64 | 342 | 1.0 | 2.0 | 0.00 | 0.00 | 0.00 | 1 | 1009.9 |
| 20260506113817 | 64 | 342 | 1.0 | 3.0 | 0.00 | 0.00 | 0.00 | 1 | 1009.9 |
| 20260506113317 | 65 | 325 | 1.0 | 3.0 | 0.00 | 0.00 | 0.00 | 1 | 1009.9 |
| 20260506112817 | 65 | 313 | 1.0 | 2.0 | 0.00 | 0.00 | 0.00 | 1 | 1009.9 |
| 20260506112321 | 65 | 335 | 1.0 | 3.0 | 0.00 | 0.00 | 0.00 | 1 | 1009.7 |
| 20260506112317 | 65 | 298 | 1.0 | 3.0 | 0.00 | 0.00 | 0.00 | 1 | 1009.9 |
| 20260506111317 | 65 | 317 | 1.0 | 4.0 | 0.00 | 0.00 | 0.00 | 1 | 1009.7 |
| 20260506110818 | 65 | 322 | 1.0 | 4.0 | 0.00 | 0.00 | 0.00 | 1 | 1009.7 |
| 20260506110317 | 65 | 306 | 1.0 | 3.0 | 0.00 | 0.00 | 0.00 | 1 | 1009.6 |
| 20260506105817 | 66 | 297 | 1.0 | 2.0 | 0.00 | 0.00 | 0.00 | 1 | 1009.5 |
| 20260506105321 | 67 | 334 | 1.0 | 2.0 | 0.00 | 0.00 | 0.00 | 1 | 1009.4 |
| 20260506105317 | 66 | 324 | 1.0 | 2.0 | 0.00 | 0.00 | 0.00 | 1 | 1009.5 |
| 20260506104317 | 67 | 17 | 1.0 | 2.0 | 0.00 | 0.00 | 0.00 | 1 | 1009.3 |
| 20260506103815 | 67 | 40 | 0.0 | 3.0 | 0.00 | 0.00 | 0.00 | 1 | 1009.1 |
| 20260506103315 | 67 | 317 | 0.0 | 3.0 | 0.00 | 0.00 | 0.00 | 1 | 1009.0 |
| 20260506102811 | 67 | 305 | 0.0 | 3.0 | 0.00 | 0.00 | 0.00 | 1 | 1009.0 |
| 20260506102311 | 68 | 324 | 0.0 | 2.0 | 0.00 | 0.00 | 0.00 | 1 | 1008.9 |
| 20260506101811 | 68 | 321 | 0.0 | 1.0 | 0.00 | 0.00 | 0.00 | 1 | 1008.8 |
| 20260506101311 | 68 | 321 | 0.0 | 3.0 | 0.00 | 0.00 | 0.00 | 1 | 1008.6 |
| 20260506100812 | 68 | 321 | 0.0 | 3.0 | 0.00 | 0.00 | 0.00 | 1 | 1008.6 |
| 20260506100311 | 68 | 321 | 0.0 | 0.0 | 0.00 | 0.00 | 0.00 | 1 | 1008.6 |
| 20260506095811 | 68 | 321 | 0.0 | 0.0 | 0.00 | 0.00 | 0.00 | 1 | 1008.5 |
| 20260506095315 | 69 | 321 | 0.0 | 1.0 | 0.00 | 0.00 | 0.00 | 1 | 1008.3 |
| 20260506095311 | 69 | 322 | 0.0 | 1.0 | 0.00 | 0.00 | 0.00 | 1 | 1008.4 |
| 20260506094308 | 69 | 318 | 0.0 | 0.0 | 0.00 | 0.00 | 0.00 | 1 | 1008.3 |
| 20260506093807 | 70 | 319 | 0.0 | 0.0 | 0.00 | 0.00 | 0.00 | 1 | 1008.2 |
| 20260506093307 | 71 | 319 | 0.0 | 0.0 | 0.00 | 0.00 | 0.00 | 1 | 1008.2 |
| 20260506092808 | 73 | 288 | 0.0 | 3.0 | 0.00 | 0.00 | 0.00 | 1 | 1008.2 |
| 20260506092309 | 75 | 160 | 1.0 | 4.0 | 0.00 | 0.00 | 0.00 | 1 | 1008.1 |
| 20260506092306 | 75 | 128 | 2.0 | 5.0 | 0.00 | 0.00 | 0.00 | 1 | 1008.1 |
| 20260506091305 | 75 | 195 | 2.0 | 5.0 | 0.00 | 0.00 | 0.00 | 1 | 1008.0 |
| 20260506090805 | 75 | 190 | 1.0 | 5.0 | 0.00 | 0.00 | 0.00 | 1 | 1007.9 |
| 20260506090308 | 75 | 166 | 2.0 | 5.0 | 0.00 | 0.00 | 0.00 | 1 | 1007.8 |
| 20260506090303 | 75 | 161 | 1.0 | 5.0 | 0.00 | 0.00 | 0.00 | 1 | 1007.9 |
| 20260506085306 | 76 | 219 | 2.0 | 6.0 | 0.00 | 0.00 | 0.00 | 1 | 1007.8 |
| 20260506085301 | 76 | 163 | 2.0 | 5.0 | 0.00 | 0.00 | 0.00 | 1 | 1007.8 |
| 20260506084300 | 76 | 155 | 3.0 | 6.0 | 0.00 | 0.00 | 0.00 | 1 | 1007.9 |
| 20260506083759 | 76 | 155 | 2.0 | 7.0 | 0.00 | 0.00 | 0.00 | 1 | 1007.8 |
| 20260506083259 | 76 | 145 | 2.0 | 7.0 | 0.00 | 0.00 | 0.00 | 1 | 1007.8 |
| 20260506082759 | 76 | 129 | 2.0 | 7.0 | 0.00 | 0.00 | 0.00 | 1 | 1007.8 |
| 20260506082259 | 76 | 182 | 3.0 | 8.0 | 0.00 | 0.00 | 0.00 | 1 | 1007.7 |
| 20260506081759 | 76 | 176 | 3.0 | 8.0 | 0.00 | 0.00 | 0.00 | 1 | 1007.7 |
| 20260506081258 | 76 | 183 | 3.0 | 8.0 | 0.00 | 0.00 | 0.00 | 1 | 1007.8 |
| 20260506080758 | 76 | 182 | 2.0 | 8.0 | 0.00 | 0.00 | 0.00 | 1 | 1007.8 |
| 20260506080303 | 76 | 205 | 2.0 | 6.0 | 0.00 | 0.00 | 0.00 | 1 | 1007.8 |
| 20260506080259 | 76 | 205 | 1.0 | 5.0 | 0.00 | 0.00 | 0.00 | 1 | 1007.8 |
| 20260506072755 | 76 | 192 | 2.0 | 9.0 | 0.00 | 0.00 | 0.00 | 1 | 1008.0 |
| 20260506072254 | 76 | 234 | 2.0 | 7.0 | 0.00 | 0.00 | 0.00 | 1 | 1008.0 |
| 20260506071754 | 76 | 207 | 3.0 | 8.0 | 0.00 | 0.00 | 0.00 | 1 | 1008.0 |
| 20260506071255 | 76 | 209 | 3.0 | 8.0 | 0.00 | 0.00 | 0.00 | 1 | 1008.1 |
| 20260506070755 | 76 | 127 | 3.0 | 9.0 | 0.00 | 0.00 | 0.00 | 1 | 1008.1 |
| 20260506070255 | 76 | 189 | 3.0 | 10.0 | 0.00 | 0.00 | 0.00 | 1 | 1008.0 |
| 20260506062254 | 76 | 164 | 2.0 | 7.0 | 0.00 | 0.00 | 0.00 | 1 | 1008.0 |
| 20260506061752 | 76 | 161 | 2.0 | 5.0 | 0.00 | 0.00 | 0.00 | 1 | 1008.0 |
| 20260506061256 | 76 | 182 | 2.0 | 7.0 | 0.00 | 0.00 | 0.00 | 1 | 1008.1 |
| 20260506061252 | 76 | 160 | 2.0 | 6.0 | 0.00 | 0.00 | 0.00 | 1 | 1008.1 |
| 20260506060253 | 76 | 221 | 2.0 | 7.0 | 0.00 | 0.00 | 0.00 | 1 | 1008.0 |